New York Downtown Manhattan/w, NY

11:06 PM EST on December 13, 2019 (GMT -0500)
New York Downtown Manhattan/w

Weather History for KJRB - August, 2019

Change the Weather History Date:

Saturday, August 10, 2019

  Actual Average (KEWR) Record (KEWR)
Temperature  
Mean Temperature 77 °F -  
Max Temperature 86 °F 85 °F 102 °F (1949)
Min Temperature 70 °F 69 °F 57 °F (1962)
Cooling Degree Days 12    
Growing Degree Days 27 (Base 50)    
Moisture  
Dew Point 56 °F    
Average Humidity 48    
Maximum Humidity 64    
Minimum Humidity 34    
Precipitation  
Precipitation 0.00 in - - ()
Sea Level Pressure  
Sea Level Pressure 29.85 in    
Wind  
Wind Speed 5 mph (West)    
Max Wind Speed 16 mph    
Max Gust Speed 52 mph    
Visibility 10 miles    
Events Rain    
Averages and records for this station are not official NWS values.
T = Trace of Precipitation, MM = Missing Value Source: NWS Daily Summary

Daily Weather History Graph

Daily Weather History Graph

Search for Another Location

Airport or City:

Astronomy

Aug. 10, 2019 Rise Set
Actual Time 6:01 AM EDT 8:00 PM EDT
Civil Twilight 5:31 AM EDT 8:30 PM EDT
Nautical Twilight 4:54 AM EDT 9:07 PM EDT
Astronomical Twilight 4:15 AM EDT 9:46 PM EDT
Moon 4:41 PM EDT (8/10) 1:35 AM EDT (8/10)
Length of Visible Light 14h 59m
Length of Day
13h 59m
Waxing Gibbous, 79% of the Moon is Illuminated
Aug 10
Waxing Gibbous
Aug 15
Full
Aug 23
Last Quarter
Aug 30
New
Sep 5
First Quarter

Hourly Weather History & Observations

Time (EDT) Temp. Heat Index Dew Point Humidity Pressure Visibility Wind Dir Wind Speed Gust Speed Precip Events Conditions
12:56 AM 75.9 °F - 57.0 °F 52% 29.81 in 10.0 mi Variable 3.5 mph - N/A   Clear
1:56 AM 73.9 °F - 57.0 °F 55% 29.81 in 10.0 mi Variable 3.5 mph - N/A   Clear
2:56 AM 73.0 °F - 60.1 °F 64% 29.83 in 10.0 mi Variable 4.6 mph - N/A   Clear
3:56 AM 71.1 °F - 57.0 °F 61% 29.83 in 10.0 mi WSW 5.8 mph - N/A   Clear
4:56 AM 71.1 °F - 57.0 °F 61% 29.83 in 10.0 mi West 3.5 mph - N/A   Clear
5:56 AM 71.1 °F - 57.0 °F 61% 29.84 in 10.0 mi Calm Calm - N/A   Clear
6:56 AM 70.0 °F - 57.0 °F 63% 29.85 in 10.0 mi Calm Calm - N/A   Partly Cloudy
7:56 AM 71.1 °F - 57.9 °F 63% 29.86 in 10.0 mi Calm Calm - N/A   Clear
8:56 AM 73.0 °F - 57.9 °F 59% 29.86 in 10.0 mi Variable 4.6 mph - N/A   Clear
9:56 AM 79.0 °F - 55.9 °F 45% 29.85 in 10.0 mi Variable 4.6 mph - N/A   Clear
10:56 AM 82.0 °F 82.0 °F 57.9 °F 44% 29.84 in 10.0 mi WNW 8.1 mph 18.4 mph N/A   Clear
11:56 AM 82.9 °F 81.9 °F 54.0 °F 37% 29.83 in 10.0 mi West 16.1 mph 24.2 mph N/A   Clear
12:56 PM 82.9 °F 82.0 °F 55.0 °F 38% 29.83 in 10.0 mi West 11.5 mph 21.9 mph N/A   Mostly Cloudy
1:56 PM 82.9 °F 81.9 °F 54.0 °F 37% 29.82 in 10.0 mi Variable 6.9 mph - N/A   Scattered Clouds
2:56 PM 84.0 °F 83.0 °F 55.9 °F 38% 29.81 in 10.0 mi WSW 8.1 mph 17.3 mph N/A   Scattered Clouds
3:56 PM 84.9 °F 83.3 °F 54.0 °F 34% 29.82 in 10.0 mi Variable 6.9 mph - 0.00 in Rain Light Rain
4:56 PM 84.0 °F 82.6 °F 54.0 °F 35% 29.82 in 10.0 mi Variable 5.8 mph - 0.00 in Rain Light Rain
5:56 PM 84.9 °F 83.3 °F 54.0 °F 34% 29.82 in 10.0 mi WNW 12.7 mph 51.8 mph 0.00 in Rain Light Rain
6:56 PM 82.0 °F 81.4 °F 55.0 °F 39% 29.85 in 10.0 mi Variable 4.6 mph - 0.00 in   Partly Cloudy
7:56 PM 79.0 °F - 54.0 °F 42% 29.87 in 10.0 mi Variable 3.5 mph - N/A   Partly Cloudy
8:56 PM 75.9 °F - 57.0 °F 52% 29.90 in 10.0 mi Variable 5.8 mph - N/A   Clear
9:56 PM 75.0 °F - 52.0 °F 44% 29.92 in 10.0 mi Variable 4.6 mph - N/A   Clear
10:56 PM 73.9 °F - 52.0 °F 46% 29.94 in 10.0 mi Calm Calm - N/A   Clear
11:56 PM 73.0 °F - 54.0 °F 51% 29.95 in 10.0 mi Calm Calm - N/A   Clear